Dewpoint
61 57 57 55 50 48 45 43 26 37 31 24 23 23 17 30 35 28 25 26 25 22 24 30 29 31 25 28 29 30 29 24 24 17 27 43 60 59 61 63 63 61 60 63 66 68 69 70 71 71 71 71 71 71 71 71 71 71 71 71 71 71 71 70 70 70 70 70 70 70 70 70 69 69 70 69 69 69 69 70 70 70 70 70 70 70 70 70 70 69 69 69 68 68 67 66 65
56 55 54 53 48 45 39 37 29 23 27 19 17 23 21 30 29 27 24 23 25 25 32 30 29 31 32 33 32 31 28 30 28 33 43 51 53 57 59 63 62 59 61 63 65 67 68 69 70 71 71 71 71 71 70 71 71 71 71 71 71 71 71 70 70 70 70 70 70 70 70 70 69 69 69 68 68 69 69 69 69 69 70 70 69 69 69 69 69 69 68 68 67 66 65 65 64
53 51 51 51 47 42 40 36 22 25 19 11 8 15 30 24 23 22 22 23 28 27 30 32 32 30 29 30 27 27 23 34 34 36 35 52 42 53 60 62 63 63 62 64 65 67 67 68 70 71 71 71 71 70 70 71 71 70 70 70 71 71 70 69 70 69 69 70 70 70 70 70 69 69 68 68 68 68 68 68 69 69 69 69 69 69 69 68 68 68 67 67 66 65 64 64 63
58 52 49 46 38 40 33 31 27 21 19 15 13 23 23 20 19 22 24 26 29 26 30 33 29 31 28 25 26 29 28 27 33 36 33 43 49 59 59 62 64 61 62 66 65 66 66 68 69 71 71 70 70 71 70 71 71 70 70 70 70 70 69 69 70 70 70 70 70 70 70 69 69 68 67 67 67 67 68 68 68 68 67 68 67 68 68 67 67 67 66 66 65 64 64 63 62
55 49 52 45 40 32 32 34 28 23 15 18 9 16 23 24 21 23 24 27 28 28 27 30 30 31 31 30 30 26 22 33 33 40 41 51 56 58 60 63 62 61 62 64 65 66 66 68 69 70 71 71 70 70 71 71 70 70 70 70 70 70 70 70 70 70 70 70 70 70 69 69 68 67 67 66 67 67 67 68 67 67 67 67 67 67 66 66 66 65 65 64 64 63 63 62 61
51 47 49 48 34 38 32 28 28 20 16 17 12 11 21 22 22 25 26 27 28 29 28 29 27 24 24 27 30 26 34 23 42 39 47 50 57 62 61 64 60 61 61 63 65 65 65 68 69 70 71 71 70 70 71 71 70 70 70 70 70 70 70 70 70 70 69 69 69 69 69 68 68 67 66 66 66 66 65 66 66 66 66 66 66 65 65 65 65 65 64 64 63 62 61 60 60
47 42 41 39 39 38 28 28 23 22 21 23 20 17 18 20 27 27 24 25 28 30 30 28 26 26 24 25 26 29 36 44 34 48 53 57 59 61 62 61 62 61 62 63 65 65 66 68 69 70 71 70 70 71 71 71 71 70 70 70 70 70 70 70 70 70 69 69 69 69 68 68 67 66 66 66 66 65 64 64 64 65 65 65 64 64 64 64 64 64 64 63 62 61 60 59 58
48 44 42 30 33 31 27 25 25 26 23 24 25 26 21 21 28 27 25 26 24 24 28 28 27 23 22 24 21 35 36 40 50 51 50 50 61 63 62 60 61 61 62 63 64 65 66 67 69 70 70 71 71 71 71 71 70 70 70 70 70 70 70 70 70 69 69 69 68 68 67 67 66 66 65 65 65 65 64 63 62 64 64 64 63 62 62 63 64 63 63 62 61 59 58 57 57
41 37 43 37 26 33 25 22 23 30 26 31 27 31 34 29 30 28 27 28 28 27 26 26 28 23 22 22 24 33 28 42 43 50 51 53 61 62 61 60 60 62 63 62 64 66 68 66 67 69 70 70 71 71 71 70 70 70 70 70 70 70 70 70 70 69 69 68 68 67 67 66 65 65 65 63 62 61 61 61 61 63 63 62 61 61 61 62 62 62 61 60 59 58 57 57 56
38 39 29 31 32 22 27 20 20 19 25 27 24 20 21 24 26 30 27 26 27 27 25 26 27 23 22 21 22 25 31 44 46 48 50 53 60 61 60 62 62 63 63 63 64 66 66 66 65 67 69 70 71 71 70 70 70 70 70 70 70 70 69 69 69 69 68 67 67 66 65 65 65 64 61 61 61 61 61 61 61 61 60 61 61 61 61 61 61 61 60 58 58 56 56 56 55
29 34 39 30 26 22 22 14 21 22 23 23 25 25 26 28 28 27 28 27 28 25 24 26 25 24 24 23 24 44 43 42 44 41 50 52 61 61 60 62 63 64 62 64 65 66 66 67 64 65 67 68 69 70 70 70 70 70 70 70 70 70 69 69 69 68 69 67 67 66 65 65 65 62 62 62 61 61 61 61 61 61 61 61 61 61 61 60 60 59 58 58 57 57 56 55 55
29 30 34 26 22 20 16 18 20 20 24 30 25 25 26 27 29 27 27 25 25 26 26 26 23 24 24 23 27 31 35 33 43 49 51 56 58 61 61 61 63 63 64 63 65 65 66 67 67 64 65 65 66 68 68 69 69 70 70 70 70 69 69 69 69 68 66 64 65 66 64 63 61 62 62 62 61 61 61 61 61 61 61 61 60 60 60 60 60 59 58 57 56 57 55 54 54
35 38 26 20 19 19 30 22 22 30 27 22 20 23 28 28 25 22 23 25 25 24 23 25 27 25 21 23 29 29 25 45 45 49 53 53 58 60 61 60 61 62 62 64 64 65 67 65 66 66 66 63 63 64 65 66 67 68 68 68 68 68 68 67 66 67 66 65 64 64 64 65 64 62 62 62 61 61 62 61 61 61 61 61 60 60 60 60 59 58 58 57 56 56 55 54 53
32 39 29 24 30 26 24 23 29 24 15 19 21 25 28 26 25 26 25 23 23 22 24 26 25 25 23 24 24 25 28 44 47 51 51 56 58 59 60 60 61 61 62 63 62 64 65 65 64 66 66 66 66 64 62 64 65 66 67 67 67 67 67 67 66 66 65 65 64 64 64 64 64 63 62 61 61 61 61 61 61 61 61 61 61 60 60 59 59 58 57 57 56 55 54 53 52
34 40 30 32 30 27 30 25 23 24 16 23 23 23 24 27 27 27 24 21 19 26 26 26 28 23 15 20 13 25 35 46 50 53 55 56 58 58 59 60 61 62 61 61 62 63 63 64 64 65 66 65 65 65 65 65 62 64 65 65 65 66 66 66 66 65 64 63 64 63 63 62 61 61 62 62 62 62 62 61 61 60 60 61 60 60 60 59 59 58 58 56 56 55 54 53 51
42 37 33 28 24 25 26 25 27 25 18 20 25 25 23 22 26 24 23 24 25 31 26 22 27 21 22 22 21 31 36 47 50 53 54 56 57 57 58 59 59 60 61 61 61 63 63 63 64 64 65 65 64 64 64 64 63 61 63 64 64 65 65 65 64 63 62 61 62 61 60 60 59 60 59 60 60 61 61 59 60 60 60 60 60 60 60 59 59 58 57 56 55 54 53 52 50
40 39 28 25 18 25 27 23 25 18 19 21 26 24 21 18 24 24 23 23 22 21 25 24 24 26 24 22 35 34 41 49 52 53 55 55 55 55 56 58 58 58 60 60 61 61 63 63 63 63 63 64 64 64 64 65 65 61 61 61 62 63 63 63 63 60 58 58 59 57 57 60 60 59 61 59 57 60 58 57 60 61 60 60 60 59 59 59 58 57 56 55 54 53 51 50 49
38 29 26 26 20 25 25 20 24 24 16 15 22 22 20 19 22 22 22 21 22 22 22 24 25 26 25 28 39 43 47 48 51 51 52 54 54 54 54 55 56 57 58 59 59 60 61 62 63 62 63 64 64 64 65 65 65 62 63 63 64 63 61 60 62 62 59 61 58 59 60 58 58 58 58 57 58 58 59 57 59 61 60 60 59 59 59 58 58 57 56 55 54 53 49 46 45
33 32 27 21 27 22 23 21 21 20 19 18 21 21 21 21 23 22 21 20 21 21 21 22 21 22 23 25 34 37 44 46 49 48 51 52 52 52 54 55 56 56 57 58 58 59 59 60 61 61 62 63 64 64 64 64 63 63 63 63 63 61 61 62 61 61 60 61 60 60 58 58 58 58 58 58 58 56 57 57 59 60 60 59 58 58 58 58 58 57 56 54 51 47 44 42 38
35 30 25 25 27 25 23 24 21 22 20 20 20 22 23 22 23 22 22 22 22 21 20 20 21 20 21 23 24 30 38 39 46 47 47 49 50 50 52 54 54 56 56 58 58 59 59 59 60 61 61 62 63 62 63 62 62 62 62 62 61 61 62 62 62 61 61 61 61 60 58 58 59 57 55 54 56 57 58 56 58 58 59 58 57 56 56 56 55 54 51 48 42 43 35 32 33
35 29 26 26 28 26 24 24 23 22 23 22 23 24 24 24 24 22 22 21 21 21 21 19 16 15 19 21 25 37 35 38 42 45 45 46 49 49 48 51 53 54 56 57 58 58 57 58 59 59 60 61 61 60 62 61 62 61 61 60 61 60 60 61 61 62 62 62 61 59 59 58 58 56 56 56 56 56 56 57 58 56 56 56 55 54 52 53 51 49 43 35 33 37 35 33 33
34 28 26 26 29 26 24 25 26 25 27 25 25 24 24 24 22 22 22 22 19 16 18 22 21 20 21 20 22 35 34 39 38 42 44 45 47 46 47 50 52 53 55 56 57 57 58 58 58 58 58 59 59 59 59 61 61 61 61 60 60 60 60 60 60 60 60 61 60 59 57 57 57 55 56 56 56 55 55 55 55 55 55 55 53 53 52 51 48 42 36 33 30 32 33 33 33
25 26 28 28 29 26 27 26 27 26 25 25 25 25 26 25 24 24 23 23 22 22 21 21 21 22 22 22 27 32 36 37 38 41 43 45 45 46 44 46 48 51 54 54 55 55 56 57 58 58 58 58 58 58 58 60 60 60 60 60 60 59 59 60 59 59 59 59 59 58 57 56 55 54 54 55 55 54 55 55 55 54 55 53 52 50 49 46 38 32 30 33 32 34 35 35 35
28 22 29 27 30 29 29 28 27 27 26 26 26 27 27 26 25 26 24 24 24 23 23 23 23 24 23 22 23 24 28 34 38 38 42 43 44 46 47 45 45 48 52 52 54 55 56 57 57 57 57 58 58 57 57 59 60 60 60 59 60 59 59 59 58 58 58 57 57 56 56 55 54 53 54 53 54 53 53 54 53 52 51 50 49 47 45 39 33 30 34 35 34 34 34 34 30
29 28 28 28 28 28 29 29 30 29 29 29 29 28 27 26 26 25 24 24 24 24 24 24 24 24 23 22 22 23 26 28 31 35 42 41 43 45 49 48 46 48 48 50 52 53 55 56 56 56 56 57 57 57 57 57 59 60 60 59 59 58 59 59 58 58 56 56 55 55 55 54 53 52 52 52 52 52 52 52 50 50 49 47 45 42 41 36 31 30 31 30 30 30 30 32 31
29 25 27 28 27 26 27 27 27 28 27 28 27 25 24 24 22 21 22 22 23 23 23 22 22 23 22 22 22 22 22 26 32 33 33 39 43 42 44 45 46 45 46 48 51 52 53 55 55 56 56 56 56 57 57 57 58 59 59 59 58 58 58 58 59 56 56 54 53 54 54 54 52 51 51 50 50 51 51 51 50 48 46 43 42 40 35 31 28 28 29 32 31 31 28 29 27
27 27 27 25 24 23 24 23 22 24 24 25 23 21 21 21 21 16 16 19 20 21 20 20 21 21 20 21 22 21 21 23 24 26 32 37 39 41 41 44 45 44 45 46 48 50 52 53 55 55 56 57 57 56 56 56 57 57 57 58 59 58 58 58 57 57 56 53 52 52 53 53 51 50 50 49 48 49 49 49 48 46 44 41 39 37 33 32 29 27 30 26 26 26 26 27 26
23 22 22 22 22 22 22 22 21 21 20 22 22 21 21 21 22 18 17 18 18 18 17 17 19 19 18 18 18 24 22 24 25 31 30 29 35 36 38 41 44 45 45 46 47 49 50 51 53 54 55 56 56 56 56 56 56 56 56 56 57 58 58 57 57 56 54 53 51 51 51 51 50 49 49 48 48 47 47 47 46 44 43 39 36 34 31 32 30 34 36 33 32 30 27 27 29
22 22 19 19 20 18 17 18 17 22 18 20 21 19 17 19 18 18 19 19 17 17 17 16 16 16 19 21 19 21 23 23 25 26 27 27 30 35 35 40 42 44 44 45 46 48 48 50 51 52 54 55 55 55 55 55 56 56 56 56 56 57 57 57 56 55 54 53 51 50 50 50 48 48 47 47 46 45 45 45 44 43 41 38 34 36 36 34 32 31 33 32 30 30 28 29 34
22 21 20 18 15 15 16 17 19 19 18 20 17 10 11 13 16 15 15 16 15 13 13 13 15 15 15 16 16 18 20 24 24 28 27 29 31 31 32 33 39 41 43 44 45 45 46 49 51 52 53 54 55 54 55 55 55 56 56 56 55 55 56 56 55 55 53 52 51 50 49 48 47 46 46 46 44 42 43 43 43 41 38 37 35 36 31 29 27 29 29 26 29 25 27 25 20
18 19 19 17 17 14 18 16 16 15 19 19 15 14 10 9 10 11 15 12 11 10 11 11 12 13 14 19 21 21 19 23 24 22 32 33 29 30 32 31 34 37 40 42 44 45 43 46 49 49 52 53 54 54 55 55 55 55 55 55 55 55 55 55 54 54 52 51 50 49 48 46 45 45 44 43 42 40 39 40 40 38 36 36 32 31 28 28 29 30 24 23 24 23 26 26 25
19 16 17 23 18 15 16 18 17 14 17 19 14 15 12 11 10 11 15 15 14 13 13 13 14 15 15 16 15 16 17 18 21 23 23 24 28 27 31 31 32 34 36 40 42 44 42 44 47 48 50 52 54 54 55 55 54 55 55 54 55 55 54 54 53 53 51 50 49 48 47 46 45 43 42 42 40 38 36 36 36 35 37 33 31 31 31 28 28 30 27 27 22 25 26 24 25
20 17 20 20 21 18 15 14 15 16 16 19 14 10 9 10 12 13 15 14 14 14 14 15 14 15 15 15 16 16 19 19 23 22 24 24 27 27 26 26 31 34 35 38 40 43 43 43 44 46 47 50 52 53 54 54 54 54 54 54 54 54 54 53 52 52 51 49 47 46 46 45 44 43 42 40 38 37 34 33 32 36 35 31 32 31 28 28 30 32 28 28 24 21 24 26 24
21 22 17 23 17 13 13 14 15 26 14 12 16 13 12 12 12 13 14 14 15 14 14 14 15 15 16 18 18 18 18 20 19 21 22 24 24 25 23 30 29 32 35 37 39 40 41 42 44 45 46 48 50 52 53 53 53 54 53 53 53 52 53 52 51 51 50 48 46 45 45 44 42 42 41 40 37 36 34 32 32 35 33 32 32 30 26 28 29 27 26 28 26 22 19 23 21
19 21 21 16 17 16 13 13 13 13 14 12 12 14 13 13 14 14 14 15 14 15 15 15 15 15 17 18 18 18 20 21 21 23 27 28 31 31 31 31 31 33 32 34 37 39 41 42 43 44 44 46 48 50 52 53 53 52 52 52 52 51 52 51 50 49 49 48 45 45 44 43 41 41 40 39 36 34 32 31 32 34 32 31 31 29 30 30 30 27 26 26 27 24 18 22 20
18 18 16 16 17 14 14 14 15 15 13 13 13 13 13 14 14 14 14 15 15 15 16 16 16 16 17 18 20 21 26 22 29 30 36 36 36 36 34 33 34 35 31 30 33 38 40 41 42 43 43 42 45 47 50 50 51 50 50 50 50 50 50 49 49 48 48 47 46 43 43 42 40 39 39 38 36 33 31 30 30 34 31 31 31 30 28 27 29 30 29 28 27 28 29 27 27
18 23 22 16 17 17 16 17 16 15 14 14 14 15 14 14 15 16 16 17 18 17 17 18 19 19 21 22 23 26 26 26 36 38 39 38 38 34 36 37 36 33 32 31 31 35 38 39 41 41 42 41 42 44 46 48 49 49 49 49 49 49 48 48 47 47 46 45 45 43 42 40 40 39 38 37 35 34 31 30 31 33 31 30 30 29 30 29 30 28 28 27 27 23 24 27 28
19 21 23 19 23 18 17 17 17 17 17 16 15 15 17 16 17 17 18 18 17 17 18 18 18 19 20 23 27 28 26 32 37 34 30 33 35 40 38 37 38 33 32 29 31 33 37 38 39 41 41 40 40 41 43 46 47 48 47 48 48 48 47 46 46 46 45 45 43 43 42 40 39 39 37 37 35 34 31 29 30 31 30 29 30 31 32 33 31 28 29 25 27 21 20 26 29
22 20 21 22 19 22 20 19 19 18 18 15 16 16 17 18 18 18 18 18 19 19 20 19 19 22 25 27 27 26 27 29 29 26 32 28 35 36 35 36 35 35 35 33 34 35 36 38 39 40 40 40 40 40 41 43 45 47 46 46 46 45 45 45 45 45 44 42 42 42 41 40 39 38 37 36 35 34 32 29 28 28 30 29 29 31 31 32 30 29 27 21 22 24 20 27 27
21 21 22 19 23 21 18 18 20 19 17 17 19 18 18 18 18 19 20 19 19 22 22 23 26 26 24 24 24 25 26 31 27 26 25 26 30 29 32 33 33 37 36 35 35 35 34 35 36 39 39 40 40 40 40 42 44 45 45 43 44 44 42 43 43 41 41 41 41 41 40 40 39 37 37 36 35 35 33 30 28 28 28 30 28 28 29 30 30 29 27 23 21 20 25 21 26
25 26 23 21 22 21 20 16 20 20 19 23 19 19 18 21 17 17 19 20 20 21 21 23 26 29 29 32 33 31 25 27 28 26 28 28 28 30 31 32 34 36 36 36 36 34 33 34 36 38 38 39 39 39 40 41 41 42 42 42 41 41 40 39 40 40 40 40 40 39 38 39 39 37 37 36 34 34 34 31 29 28 28 29 27 27 29 29 30 29 28 24 21 15 19 18 23
22 29 24 22 21 19 20 22 23 19 20 21 26 15 18 20 19 19 17 19 18 19 23 22 24 25 27 27 28 31 35 33 30 28 29 29 29 31 30 32 33 33 33 34 36 35 34 34 35 37 38 38 38 39 39 39 39 39 39 39 38 37 38 38 37 38 38 38 38 38 38 37 38 37 37 36 35 34 34 33 32 29 29 28 28 26 27 30 31 29 29 25 24 20 18 21 19
22 22 28 23 21 24 26 25 24 17 17 23 23 16 17 19 17 17 17 18 18 19 25 23 22 23 25 28 27 27 28 29 30 29 28 28 29 29 29 30 31 31 32 34 36 36 35 35 36 37 37 37 39 39 40 38 39 38 38 38 38 37 36 37 37 37 37 37 38 37 37 37 37 37 37 36 35 34 34 34 33 31 28 27 27 25 26 29 30 30 29 25 23 23 24 21 22
21 31 30 29 27 27 27 25 25 20 25 27 23 20 17 19 19 19 20 17 18 19 20 23 23 20 24 24 26 28 28 29 29 29 28 29 29 29 29 30 30 31 32 33 34 35 36 36 36 36 36 36 38 39 39 39 38 38 38 38 37 37 37 36 36 35 36 35 35 36 35 35 36 36 36 36 35 35 34 34 34 32 30 28 27 25 25 27 29 32 30 28 26 21 26 18 22
25 28 28 28 26 27 26 25 22 22 18 19 22 26 17 19 21 18 18 19 19 19 17 20 22 22 23 24 26 26 27 28 27 29 29 29 29 30 29 30 30 31 32 32 33 34 35 36 36 35 35 36 37 38 38 39 38 38 38 38 37 37 37 37 36 35 34 34 35 35 34 34 35 36 35 36 36 35 34 34 34 33 31 29 27 26 26 28 29 30 29 27 26 23 22 22 20
31 30 30 29 30 28 26 21 20 19 17 20 20 23 18 20 25 18 19 19 20 17 15 18 21 23 27 27 26 25 26 29 29 28 29 29 29 30 30 29 29 30 31 32 32 33 34 34 34 34 34 35 36 37 37 38 38 37 38 38 38 37 36 35 36 35 34 35 34 34 34 33 33 34 34 35 36 35 35 33 34 33 32 30 27 26 27 30 30 30 29 28 27 26 23 23 23
32 32 27 27 26 22 21 20 19 20 18 21 21 23 20 20 24 21 23 24 18 15 16 19 24 26 23 25 25 26 27 28 29 29 29 29 29 29 29 29 29 29 30 30 32 32 33 33 32 32 33 33 34 36 37 37 38 37 37 38 39 39 39 37 35 35 34 35 33 34 33 33 32 33 33 34 35 35 35 34 33 33 31 30 28 28 27 27 27 29 29 29 28 27 23 24 26
30 24 21 22 24 19 20 21 22 19 20 21 20 23 22 19 20 20 16 17 16 15 16 18 21 21 24 25 27 27 27 28 29 28 28 28 29 29 28 28 28 28 29 29 30 31 31 31 31 31 30 31 32 34 35 36 36 37 38 38 38 38 37 38 36 35 35 35 34 33 33 32 31 33 32 32 33 34 34 34 34 33 31 30 29 27 26 26 25 27 27 27 26 28 26 25 24
26 23 21 20 21 25 24 20 21 18 22 20 17 21 17 17 20 19 19 20 19 19 18 20 20 20 25 28 28 28 29 28 28 28 28 28 28 28 28 28 28 27 28 28 29 30 30 30 29 29 29 30 31 32 33 34 35 36 36 36 37 36 36 37 36 36 36 34 34 33 33 32 32 32 32 32 33 34 34 33 33 32 31 30 29 28 28 27 26 25 26 28 26 27 25 25 22
24 21 22 24 22 23 21 23 22 20 24 16 16 20 18 20 19 20 20 21 19 20 23 23 22 23 27 28 29 28 28 28 28 28 28 27 27 28 27 27 27 27 26 28 28 28 29 29 29 28 28 29 30 30 31 32 33 34 34 35 35 34 35 35 35 34 35 34 34 33 33 33 33 32 32 32 32 34 33 33 33 32 32 31 31 30 29 29 28 25 26 26 27 27 26 28 25
23 30 26 26 25 24 22 22 22 24 26 25 19 23 22 24 23 20 18 21 23 22 21 25 27 28 29 28 28 27 27 27 28 27 27 27 27 26 27 27 27 27 27 27 27 27 28 28 28 28 28 28 28 29 30 30 31 32 33 33 34 33 33 33 33 34 33 34 33 33 33 33 32 33 32 33 33 34 33 33 33 33 32 32 31 31 32 30 29 26 25 27 26 26 27 27 25
27 29 28 25 24 28 24 25 27 27 26 27 22 24 25 24 24 26 27 27 20 22 25 27 28 28 28 27 28 27 27 27 27 27 27 26 26 26 26 26 26 26 26 26 26 27 27 27 27 27 27 28 28 28 29 29 30 30 31 32 32 32 32 32 33 33 32 33 34 33 33 33 33 33 33 34 34 34 34 33 33 33 33 32 32 31 31 29 30 27 25 25 26 29 27 28 25
24 24 22 24 33 28 26 26 29 29 25 23 27 26 28 28 28 27 26 17 18 21 25 27 28 28 27 27 27 26 26 26 26 27 26 26 25 25 25 25 25 25 25 25 24 25 25 25 26 25 26 27 27 28 28 28 28 29 30 30 31 32 32 32 32 33 33 33 33 33 32 33 33 33 34 34 35 34 33 33 32 32 32 32 31 31 31 30 29 28 25 25 25 27 25 27 25
24 21 25 30 32 29 24 21 26 24 21 23 30 26 25 25 23 20 18 22 23 24 26 26 27 27 26 26 26 25 26 25 25 25 26 26 26 25 25 24 24 24 24 24 24 25 25 25 25 25 25 25 26 27 27 27 28 29 29 29 29 30 30 31 32 31 32 32 32 32 32 32 32 34 33 37 34 34 34 32 32 32 32 32 32 31 30 30 30 27 26 25 24 25 25 23 25
27 27 35 24 22 22 20 23 20 21 21 22 24 24 24 25 24 20 21 21 22 25 26 24 24 24 26 25 24 24 25 25 24 24 24 25 25 25 24 23 23 23 23 24 24 24 24 24 24 24 24 25 25 26 26 27 27 29 30 28 28 29 29 30 30 31 31 31 31 31 31 31 32 33 32 33 33 33 33 33 32 32 31 31 31 30 30 29 29 27 26 25 25 25 24 22 23
31 28 25 29 23 25 23 22 25 23 21 22 23 24 23 28 24 26 25 23 26 25 25 24 23 23 23 24 24 24 24 24 23 23 23 23 23 23 23 23 22 23 23 24 23 23 22 23 23 24 24 24 25 25 26 25 26 26 27 26 26 27 27 28 29 29 29 29 29 29 30 30 31 30 31 32 32 32 32 32 31 31 31 31 30 29 29 29 28 27 26 25 24 25 23 20 20
23 22 21 23 26 28 25 25 26 22 22 22 21 21 24 29 28 26 25 26 26 26 26 25 24 23 22 22 23 23 22 23 22 23 22 22 22 22 23 23 23 23 23 23 24 23 22 23 23 23 24 24 24 25 25 26 26 25 25 25 25 26 25 25 26 27 26 27 27 28 28 29 29 29 30 30 30 31 31 31 31 30 30 30 30 29 28 28 27 26 25 23 22 22 20 19 19
26 23 23 23 23 22 21 21 28 26 24 23 22 21 27 32 32 27 27 27 27 26 25 23 22 22 22 23 22 22 22 21 21 21 21 22 21 21 21 23 23 23 23 21 23 22 22 21 22 23 24 24 24 24 25 25 25 24 24 24 24 24 25 25 25 24 23 24 23 25 27 27 27 27 28 29 29 30 30 30 30 30 30 29 29 29 28 27 26 25 24 25 23 20 19 18 18